Miscellaneous Local Product
Issued by NWS Hastings, NE

Current Version | Previous Version | Text Only | Print | Product List | Glossary On
Versions: 1 2 3 4 5 6 7 8 9 10 11 12 13 14 15 16 17 18 19 20 21 22 23 24 25 26 27 28 29 30 31 32 33 34 35 36 37 38 39 40 41 42 43 44 45 46 47 48 49 50
000
AXUS43 KGID 060303
MISGRI

GID CWA HOURLY WEATHER ROUNDUP
NATIONAL WEATHER SERVICE HASTINGS NE
1000 PM CDT WED OCT 05 2022

NOTE: "FAIR" INDICATES FEW OR NO CLOUDS BELOW 12,000 FEET WITH NO
SIGNIFICANT WEATHER AND/OR OBSTRUCTIONS TO VISIBILITY.

...SOUTH CENTRAL NEBRASKA...

CITY           SKY/WX    TMP DP  RH WIND       PRES   REMARKS
GRAND ISLAND   CLEAR     58  48  69 W5        30.16S
KEARNEY        CLEAR     58  48  69 NW7       30.18S
HASTINGS       NOT AVBL
ORD            CLEAR     52  49  89 SW5       30.16R
YORK           CLEAR     54  48  82 W7        30.15R
AURORA         CLEAR     52  47  83 W3        30.16R
LEXINGTON      CLEAR     54  48  81 W3        30.20S
HOLDREGE       CLEAR     55  49  78 CALM      30.19R
HEBRON         CLEAR     56  49  75 CALM      30.15R

...NEBRASKA PANHANDLE...

CITY           SKY/WX    TMP DP  RH WIND       PRES   REMARKS
CHADRON        CLEAR     51  44  77 W6        30.25R
ALLIANCE       CLEAR     46  42  86 SW5       30.28R
SCOTTSBLUFF    CLEAR     54  42  64 S6        30.29R
SIDNEY         CLEAR     46  38  73 CALM      30.29R

...WESTERN AND NORTH CENTRAL NEBRASKA...

CITY           SKY/WX    TMP DP  RH WIND       PRES   REMARKS
VALENTINE      CLEAR     49  44  83 W6        30.20R
AINSWORTH      CLEAR     55  47  74 W6        30.19S
ONEILL         CLEAR     57  47  69 W3        30.16S
BROKEN BOW     CLEAR     50  44  80 CALM      30.19R
IMPERIAL       CLEAR     53  41  63 NW5       30.25R
NORTH PLATTE   CLEAR     53  47  79 CALM      30.22R
MCCOOK         CLEAR     60  43  53 SW6       30.21R

...EASTERN NEBRASKA...

CITY           SKY/WX    TMP DP  RH WIND       PRES   REMARKS
NORFOLK        PTCLDY    56  52  86 W5        30.13R
SO SIOUX CITY  PTCLDY    59  53  80 NW3       30.09S
TEKAMAH        CLEAR     53  48  83 W6        30.09S
COLUMBUS       CLEAR     57  52  83 CALM      30.14R
ALBION         CLEAR     52  49  90 NW3       30.15S
OMAHA EPPLEY   CLEAR     57  53  86 NW6       30.10R
OFFUTT AFB     CLEAR     63  50  63 NW7       30.11R
MILLARD        CLEAR     60  53  77 NW5       30.10S
LINCOLN        CLEAR     58  49  72 CALM      30.13R
NEBRASKA CITY  CLEAR     62  49  64 NW6       30.10S
BEATRICE       CLEAR     57  48  71 CALM      30.13R
FALLS CITY     CLEAR     59  48  67 W3        30.09R

...NORTHERN KANSAS...

CITY           SKY/WX    TMP DP  RH WIND       PRES   REMARKS
GOODLAND       CLEAR     50  38  63 CALM      30.27R
HILL CITY      CLEAR     53  45  74 CALM      30.21R
NORTON         FAIR      52  45  76 CALM      30.23R
PHILLIPSBURG   CLEAR     55  46  71 W7        30.18S
OBERLIN        FAIR      56  43  62 CALM      30.26R
SMITH CENTER   CLEAR     59  46  63 N5        30.18R
HAYS           CLEAR     55  44  66 CALM      30.20R
RUSSELL        CLEAR     64  44  48 CALM      30.17R
CONCORDIA      CLEAR     64  48  56 W6        30.14S
SALINA         CLEAR     63  48  58 W7        30.15R
TOPEKA         CLEAR     62  51  67 CALM      30.10R


USA.gov is the U.S. government's official web portal to all federal, state and local government web resources and services.